Regional Weather Roundup
Issued by NWS

Home | Current Version | Previous Version | Graphics & Text | Print | Product List | Glossary On
Versions: 1 2 3 4 5 6 7 8 9 10 11 12 13 14 15 16 17 18 19 20 21 22 23 24 25 26 27 28 29 30 31 32 33 34 35 36 37 38 39 40 41 42 43 44 45 46 47 48 49 50
000
ASUS43 KDTX 250510
RWRMI
MICHIGAN HOURLY REGIONAL WEATHER ROUNDUP
NATIONAL WEATHER SERVICE DETROIT/PONTIAC MI
100 AM EDT FRI JUL 25 2014

NOTE: "FAIR" INDICATES FEW OR NO CLOUDS BELOW 12,000 FEET WITH NO
SIGNIFICANT WEATHER AND/OR OBSTRUCTION TO VISIBILITY.

MIZ047>049-052>055-059>063-066>070-074>076-081>083-250600-
SOUTHEAST LOWER MICHIGAN

CITY           SKY/WX    TMP DP  RH WIND       PRES   REMARKS
ADRIAN         CLEAR     56  50  80 CALM      30.08F
ALMA           CLEAR     54  51  90 CALM      30.06S
ANN ARBOR      CLEAR     50  47  89 CALM      30.07F
BAD AXE        CLEAR     51  47  85 CALM      30.07S
CARO           CLEAR     53  53  98 CALM      30.06F
DETROIT CITY   CLEAR     64  51  62 CALM      30.08R
DETROIT        PTCLDY    63  53  70 S3        30.07F
FLINT          CLEAR     56  50  80 CALM      30.06F
GROSSE ILE     CLEAR     63  55  77 CALM      30.06S
HILLSDALE      CLEAR     53  53  97 CALM      30.08S
HOWELL         CLEAR     54  51  89 CALM      30.07F

CITY           SKY/WX    TMP DP  RH WIND       PRES   REMARKS
JACKSON        CLEAR     57  53  86 CALM      30.07F
LAMBERTVILLE   CLEAR     55  52  88 CALM      30.08F
LANSING        CLEAR     59  52  77 CALM      30.07F
LAPEER         FAIR      52  49  89 CALM      30.07F
MASON          CLEAR     57  53  85 CALM      30.08S
MONROE         CLEAR     57  52  82 CALM      30.06S
MT. CLEMENS    CLEAR     56  48  74 CALM      30.07R
PONTIAC        CLEAR     58  51  78 CALM      30.07F
PORT HOPE        N/A     57  48  72 SW5       30.04S
PORT HURON     CLEAR     48  46  93 CALM      30.08S FOG
TRI CITIES     CLEAR     62  51  67 S8        30.05F
TROY           CLEAR     61  49  64 CALM      30.09F
SAGINAW HB     CLEAR     57  50  77 S5        30.04F
$$
MIZ043>046-050>051-056>058-064>065-071>073-077>080-250600-
SOUTHWEST LOWER MICHIGAN

CITY           SKY/WX    TMP DP  RH WIND       PRES   REMARKS
BATTLE CREEK   CLEAR     58  50  75 SW3       30.08F
BENTON HARBOR  PTCLDY    51  50  96 CALM      30.06F
BIG RAPIDS     PTCLDY    54  48  81 CALM      30.05S
COLDWATER      CLEAR     56  54  92 CALM      30.08S
FREMONT        FAIR      56  51  84 CALM      30.05S
HOLLAND        CLEAR     54  50  86 CALM      30.06F
GRAND RAPIDS   CLEAR     58  52  80 S7        30.06F
IONIA          FAIR      58  51  76 CALM      30.06S
KALAMAZOO      PTCLDY    57  50  77 CALM      30.07F
LUDINGTON      CLOUDY    56  53  89 CALM      30.05R
MARSHALL       CLEAR     54  52  94 CALM      30.08S
MOUNT PLEASANT CLEAR     55  51  84 CALM      30.04F
MUSKEGON       MOCLDY    57  50  77 CALM      30.05S
SOUTH HAVEN    PTCLDY    52  51  96 CALM      30.05F
$$
MIZ016>042-250600-
NORTHERN LOWER MICHIGAN

CITY           SKY/WX    TMP DP  RH WIND       PRES   REMARKS
ALPENA         PTCLDY    54  52  93 SW3       30.04R
BEAVER ISLAND  CLEAR     56  52  86 SW6       30.02F
BELLAIRE       CLEAR     49  47  95 CALM      30.03S
CADILLAC       CLEAR     47  47 100 CALM      30.05S
CHARLEVOIX     CLEAR     52  49  88 CALM      30.05S
FRANKFORT      PTCLDY    53  49  86 CALM      30.04R
GAYLORD        CLEAR     53  48  83 CALM      30.05S
GRAYLING       CLEAR     49  49 100 CALM      30.05S
HARBOR SPRINGS CLEAR     54  50  86 CALM      30.03R
HOUGHTON LAKE  CLEAR     50  48  93 CALM      30.05F
MANISTEE       MOCLDY    50  46  87 CALM      30.05R
OSCODA         CLEAR     54  51  88 CALM      30.03S
PELLSTON       CLEAR     47  45  93 CALM      30.03S
ROGERS CITY    PTCLDY    53  50  90 CALM      30.04S
TRAVERSE CITY  CLEAR     56  48  74 CALM      30.02S
$$
MIZ007>008-015-250600-
EASTERN UPPER MICHIGAN

CITY           SKY/WX    TMP DP  RH WIND       PRES   REMARKS
KINROSS        CLEAR     55  52  88 SW5       30.01S
MACKINAC ISLAN CLEAR     57  52  82 SW7       30.02S
NEWBERRY       CLEAR     53  47  79 SW10      30.00F
S. S. MARIE    CLEAR     54  47  77 CALM      30.01R
MUNISING         N/A     62  46  55 S13       29.97F
$$
MIZ004>006-011>014-085-250600-
CENTRAL UPPER MICHIGAN

CITY           SKY/WX    TMP DP  RH WIND       PRES   REMARKS
MANISTIQUE     CLEAR     56  48  73 SW5       30.00F
ESCANABA       CLOUDY    59  48  67 SW3       30.00S
MENOMINEE      MOCLDY    63  48  59 SW9       30.00F
SAWYER-GWINN   PTCLDY    57  52  81 S5        29.99F
$$
MIZ001>003-009>011-084-250600-
WESTERN UPPER MICHIGAN

CITY           SKY/WX    TMP DP  RH WIND       PRES   REMARKS
IRON MOUNTAIN  CLOUDY    62  52  69 S7        29.99F
HOUGHTON       PTCLDY    54  50  86 CALM      29.94F
COPPER HARBOR    N/A     60  48  64 CALM      29.93F
IRONWOOD       MOCLDY    66  55  68 SW6       29.93F
$$

ABBREVIATIONS USED IN REMARKS
   TC - TEMPERATURE IN CELSIUS
  WCI - WIND CHILL INDEX
   HX - HEAT INDEX
  VSB - VISIBILITY



USA.gov is the U.S. government's official web portal to all federal, state and local government web resources and services.